Simultaneous Nadir Overpasses (SNOs) Predictions

Prediction of SNOs between GOES-14 and AQUA Satellite Orbit:

Table of predicted SNOs for the next 14.0 days since TLE Epoch: 12/4/2021
Index Date Time (GOES-14) GOES-14 Lat,Lon AQUA Lat,Lon Distance(km) Time Diff (sec)
1 12/04/2021 08:48:14 0.04,-104.47 0.72,-107.64 361.19 80
2 12/06/2021 08:36:05 0.04,-104.47 0.12,-104.69 25.83 80
3 12/08/2021 08:21:17 0.05,-104.47 -0.55,-101.75 310.00 80
4 12/08/2021 20:42:41 -0.02,-104.17 -0.61,-106.93 313.73 80
5 12/10/2021 20:33:12 -0.02,-104.18 0.01,-103.97 22.90 80
6 12/12/2021 20:21:03 -0.03,-104.19 0.64,-101.02 360.15 80
7 12/13/2021 08:42:21 0.01,-104.51 0.34,-106.21 191.95 80
8 12/15/2021 08:27:31 0.02,-104.53 -0.24,-103.24 145.26 80
9 12/15/2021 20:48:55 0.00,-104.20 -0.92,-108.43 480.65 80
10 12/17/2021 08:15:22 0.02,-104.54 -0.88,-100.30 482.36 80
11 12/17/2021 20:36:46 -0.01,-104.22 -0.27,-105.48 143.22 80
